"Pseudo-MPEC" for P22n0fP

Created 2026 May 8 1:35:07 UT using Find_Orb

Click here for an explanation of pseudo-MPECs

 
 Astrometry: 
     P22n0fP*0C2026 05 07.37346915 25 28.624+12 26 09.92   ~57B5 21.36wXNEOCPF52
     P22n0fP 0C2026 05 07.39770615 25 22.725+12 26 49.87   ~57B5 21.31wXNEOCPF52
     P22n0fP 0C2026 05 07.40981815 25 19.744+12 27 09.60   ~57B5 21.51wXNEOCPF52
     P22n0fP 0C2026 05 07.45836015 25 04.010+12 28 04.30   ~57BZ 21.5 RVNEOCP291
     P22n0fP  C2026 05 07.45916315 25 03.647+12 28 01.44   ~57BZ 21.0 GWNEOCPH01
     P22n0fP KC2026 05 07.46271615 25 02.849+12 28 06.85   ~57BZ 21.2 GWNEOCPH01
     P22n0fP 0C2026 05 07.46389015 25 02.740+12 28 12.80   ~57BZ 21.7 RVNEOCP291
     P22n0fP KC2026 05 07.46920315 25 01.361+12 28 16.67   ~57BZ 21.1 GWNEOCPH01
     P22n0fP 0C2026 05 07.46943015 25 01.480+12 28 21.30   ~57BZ 21.2 RVNEOCP291
     P22n0fP 0C2026 05 07.49486215 24 58.857+12 29 25.12   ~57GZ 21.64GVNEOCPF52
     P22n0fP 0C2026 05 07.49566915 24 58.645+12 29 26.40   ~57GZ 21.30GVNEOCPF52

Station data:
(291) LPL/Spacewatch II  (N31.961669 W111.599905)  US/Arizona.  Observers J.
   V. Scotti, R. S. McMillan. 1.8-m f/2.7 reflector + CCD.
(F52) Pan-STARRS 2, Haleakala  (N20.707382 W156.255910)  US/Hawaii.
   Observers J. Herman, T. Lowe, P. Minguez, A. Schultz, I. Smith. Measurers
   K. Chambers, T. de Boer, J. Fairlamb, H. Gao, M. Huber, C.-C. Lin, E.
   Magnier, Y. Ramanjooloo, R. Wainscoat, R. Weryk. 1.8-m Ritchey-Chrétien +
   CCD.
(H01) Magdalena Ridge Observatory, Socorro  (N33.984833 W107.189333)  US/New
   Mexico.  Observers W. H. Ryan, E. V. Ryan. Measurer W. H. Ryan. 2.4-m
   f/8.9 reflector + CCD.

Orbital elements:  P22n0fP
   Perihelion 2026 Jan 10.888774 +/- 23.7 TT = 21:19:50.0 (JD 2461051.388774)
Epoch 2026 May  7.0 TT = JDT 2461167.5   Earth MOID: 0.0073      AutoNEOCP
M 114.677243922 +/- 27              (J2000 ecliptic)
n   0.987649928 +/- 0.0344          Peri.  254.715127 +/- 6
a   0.998620992 +/- 0.0232          Node   200.971547 +/- 11
e   0.16714772 +/- 0.0553           Incl.    5.654806 +/- 2.3
P   0.998/364.495d         H 25.30  G  0.15   U 10.5
q 0.831703763 +/- 0.036    Q 1.165538222 +/- 0.0823
From 11 observations 2026 May 7 (2.9 hr); mean residual 0".10
Residuals in arcseconds: 
260507 F52  .01+  .08+    260507 H01  .10-  .12-    260507 291  .18+  .25+    
260507 F52  .09+  .01-    260507 H01  .10+  .07-    260507 F52  .12+  .01-    
260507 F52  .11-  .10-    260507 291  .02-  .09+    260507 F52  .10-  .02+    
260507 291  .12-  .06-    260507 H01  .08-  .00     

Ephemerides (geocentric):
Date (UTC) HH   RA             Dec           delta  r     elong  mag " sig PA
---- --------  ------------   ------------  ------ ------ -----  --- --------
2026 05 08 02  15 22 59.993   +12 44 44.53  .09391 1.0913 149.7 21.6 22.2 118
2026 05 08 03  15 22 51.578   +12 45 46.59  .09402 1.0914 149.7 21.6 25.2 118
2026 05 08 04  15 22 43.179   +12 46 48.40  .09412 1.0914 149.7 21.6 28.3 118
2026 05 08 05  15 22 34.795   +12 47 49.94  .09422 1.0915 149.7 21.6 31.6 118
2026 05 08 06  15 22 26.426   +12 48 51.21  .09433 1.0916 149.6 21.6 35.1 118
2026 05 08 07  15 22 18.073   +12 49 52.23  .09443 1.0917 149.6 21.6 38.8 118
2026 05 08 08  15 22 09.735   +12 50 52.98  .09453 1.0918 149.6 21.6 42.7 118
2026 05 08 09  15 22 01.412   +12 51 53.46  .09464 1.0919 149.6 21.6 46.7 118
2026 05 08 10  15 21 53.105   +12 52 53.69  .09474 1.0920 149.6 21.6 50.9 118
2026 05 08 11  15 21 44.813   +12 53 53.66  .09485 1.0921 149.6 21.6 55.2 118
2026 05 08 12  15 21 36.536   +12 54 53.36  .09495 1.0922 149.6 21.6 59.8 118
2026 05 08 13  15 21 28.275   +12 55 52.81  .09505 1.0923 149.5 21.6 64.5 118
2026 05 08 14  15 21 20.029   +12 56 52.00  .09516 1.0924 149.5 21.6 69.4 118
2026 05 08 15  15 21 11.798   +12 57 50.92  .09526 1.0924 149.5 21.6 74.4 117
2026 05 08 16  15 21 03.582   +12 58 49.59  .09537 1.0925 149.5 21.6 79.6 117
2026 05 08 17  15 20 55.382   +12 59 48.01  .09547 1.0926 149.5 21.6 85.0 117
2026 05 08 18  15 20 47.197   +13 00 46.16  .09558 1.0927 149.5 21.6 90.6 117
2026 05 08 19  15 20 39.027   +13 01 44.06  .09568 1.0928 149.5 21.6 96.3 117
2026 05 08 20  15 20 30.873   +13 02 41.70  .09579 1.0929 149.4 21.6  102 117
2026 05 08 21  15 20 22.733   +13 03 39.09  .09589 1.0930 149.4 21.6  108 117
2026 05 08 22  15 20 14.609   +13 04 36.22  .09600 1.0931 149.4 21.6  114 117
2026 05 08 23  15 20 06.500   +13 05 33.10  .09610 1.0932 149.4 21.7  121 117
2026 05 09 00  15 19 58.406   +13 06 29.72  .09621 1.0933 149.4 21.7  127 117
2026 05 09 01  15 19 50.327   +13 07 26.09  .09631 1.0934 149.4 21.7  134 117
2026 05 09 02  15 19 42.263   +13 08 22.21  .09642 1.0934 149.3 21.7  141 117
2026 05 09 03  15 19 34.215   +13 09 18.08  .09652 1.0935 149.3 21.7  148 117
2026 05 09 04  15 19 26.181   +13 10 13.69  .09663 1.0936 149.3 21.7  155 117
2026 05 09 05  15 19 18.163   +13 11 09.05  .09673 1.0937 149.3 21.7  162 117
2026 05 09 06  15 19 10.160   +13 12 04.16  .09684 1.0938 149.3 21.7  170 117
2026 05 09 07  15 19 02.172   +13 12 59.03  .09695 1.0939 149.3 21.7  177 117
2026 05 09 08  15 18 54.198   +13 13 53.64  .09705 1.0940 149.2 21.7  185 117
2026 05 09 09  15 18 46.240   +13 14 48.00  .09716 1.0941 149.2 21.7  193 117
2026 05 09 10  15 18 38.297   +13 15 42.12  .09726 1.0942 149.2 21.7  201 117
2026 05 09 11  15 18 30.369   +13 16 35.98  .09737 1.0943 149.2 21.7  210 117
2026 05 09 12  15 18 22.456   +13 17 29.60  .09748 1.0943 149.2 21.7  218 117
2026 05 09 13  15 18 14.558   +13 18 22.97  .09758 1.0944 149.2 21.7  227 117
2026 05 09 14  15 18 06.675   +13 19 16.10  .09769 1.0945 149.1 21.7  235 117
2026 05 09 15  15 17 58.807   +13 20 08.98  .09780 1.0946 149.1 21.7  244 117
2026 05 09 16  15 17 50.954   +13 21 01.61  .09790 1.0947 149.1 21.7  253 117
2026 05 09 17  15 17 43.116   +13 21 54.00  .09801 1.0948 149.1 21.7  262 117
2026 05 09 18  15 17 35.292   +13 22 46.14  .09812 1.0949 149.1 21.7  272 117
2026 05 09 19  15 17 27.484   +13 23 38.04  .09822 1.0950 149.1 21.7  281 117
2026 05 09 20  15 17 19.690   +13 24 29.70  .09833 1.0951 149.0 21.7  291 117
2026 05 09 21  15 17 11.912   +13 25 21.12  .09844 1.0951 149.0 21.7  300 116
2026 05 09 22  15 17 04.148   +13 26 12.29  .09855 1.0952 149.0 21.7  310 116
2026 05 09 23  15 16 56.399   +13 27 03.22  .09865 1.0953 149.0 21.7  320 116
2026 05 10 00  15 16 48.665   +13 27 53.91  .09876 1.0954 149.0 21.7  330 116
2026 05 10 01  15 16 40.946   +13 28 44.36  .09887 1.0955 148.9 21.7  341 116